[[{"header":{"parameterUnit":"m.s-1","parameterCategory":1,"la1":30.2991,"la2":30.254,"lo1":-89.0895,"lo2":-89.0444,"dy":0.0017,"dx":0.0017,"nx":28,"ny":28,"refTime":"2025-06-04T09:00:00:Z","depth":0,"parameterNumber":2,"parameterNumberName":"U-component_of_WINDS"},"data":[0,0,0,0,0,0,0,0,0,0,0,0,0,0,0,0,0,0,0,0,0,0,0,0,0,0,0,0,0,0,0,0,0,0,0,0,0,0,0,0,0,0,0,0,0,0,0,0,0,0,0,0,0,0,0,0,0,0,-1.0667,-1.0667,0,-1.0674,-1.0674,-1.0674,-1.0677,-1.0677,-1.0677,-1.0677,-1.0684,-1.0684,-1.0684,0,0,0,0,0,0,0,0,0,0,0,0,0,-1.0653,-1.0654,-1.0667,-1.0667,-1.0667,-1.0674,-1.0674,-1.0674,-1.0677,-1.0677,-1.0677,-1.0677,-1.0684,-1.0684,-1.0684,0,0,0,0,0,0,0,0,0,0,0,0,0,-1.066,-1.0654,-1.0667,-1.0669,-1.0669,-1.0674,-1.0674,-1.0674,-1.0677,-1.0677,-1.0677,-1.0677,-1.0684,-1.0684,-1.0684,-1.0687,0,0,-1.0685,-1.0685,0,0,0,0,0,0,0,0,-1.0659,-1.066,-1.0669,-1.0669,-1.0669,-1.0675,-1.0672,-1.0679,-1.0677,-1.0674,-1.0677,-1.0677,-1.0681,-1.0681,-1.0683,-1.0687,-1.0688,-1.0685,-1.0685,-1.0686,-1.0686,0,0,0,0,0,0,0,-1.0659,-1.066,-1.067,-1.0669,-1.0669,-1.0669,-1.067,-1.0673,-1.0678,-1.0674,-1.0675,-1.0675,-1.0681,-1.0682,-1.0683,-1.0688,-1.0685,-1.0686,-1.0686,-1.0686,-1.0694,-1.0694,0,0,0,0,0,0,-1.0658,-1.066,-1.0669,-1.067,-1.0664,-1.067,-1.0671,-1.0673,-1.0678,-1.0678,-1.0675,-1.0675,-1.0682,-1.0683,-1.0683,-1.0686,-1.0686,-1.0686,-1.0686,-1.0694,-1.0694,-1.0694,0,0,0,0,0,0,-1.0658,-1.0659,-1.0669,-1.0665,-1.0666,-1.067,-1.0673,-1.0673,-1.0675,-1.0678,-1.0679,-1.0676,-1.0682,-1.0683,-1.0686,-1.0686,-1.0686,-1.0686,-1.0694,-1.0694,-1.0694,-1.0692,0,0,0,0,0,0,-1.0658,-1.0659,-1.0661,-1.0665,-1.0666,-1.0672,-1.0673,-1.0673,-1.0675,-1.0675,-1.0679,-1.068,-1.0682,-1.0685,-1.0686,-1.0687,-1.0687,-1.0693,-1.0694,-1.0694,-1.0692,-1.0692,-1.0692,0,0,0,0,0,-1.0657,-1.066,-1.0661,-1.0662,-1.0668,-1.0672,-1.0673,-1.0675,-1.0675,-1.0677,-1.0679,-1.068,-1.0686,-1.0686,-1.0687,-1.0687,-1.0693,-1.0694,-1.0694,-1.0692,-1.0692,-1.0692,0,0,0,0,0,0,-1.0656,-1.0661,-1.0661,-1.0666,-1.0669,-1.0673,-1.0675,-1.0675,-1.0678,-1.0678,-1.0681,-1.0682,-1.0684,-1.0686,-1.0685,-1.0689,-1.069,-1.069,-1.0688,-1.0688,-1.0688,-1.0688,-1.0687,0,0,0,0,0,-1.0656,-1.0659,-1.0663,-1.0667,-1.0668,-1.0671,-1.0673,-1.0674,-1.0677,-1.0678,-1.0681,-1.0683,-1.0685,-1.0687,-1.0689,-1.0692,-1.0692,-1.0693,-1.0693,-1.0693,-1.0693,-1.0693,-1.0693,-1.0694,-1.0694,-1.0694,0,0,-1.0657,-1.066,-1.0662,-1.0666,-1.0669,-1.0671,-1.0672,-1.0675,-1.0676,-1.0679,-1.0681,-1.0683,-1.0686,-1.0688,-1.069,-1.069,-1.0693,-1.0693,-1.0693,-1.0693,-1.0693,-1.0693,-1.0693,-1.0694,-1.0694,-1.0694,0,0,-1.0659,-1.0662,-1.0665,-1.0667,-1.067,-1.0672,-1.0672,-1.0676,-1.0677,-1.068,-1.0681,-1.0683,-1.0687,-1.0689,-1.069,-1.0691,-1.0692,-1.0692,-1.0692,-1.0692,-1.0692,-1.0692,-1.0692,-1.0692,-1.0692,-1.0692,-1.0692,0,-1.0659,-1.0664,-1.0666,-1.0668,-1.067,-1.0672,-1.0674,-1.0676,-1.068,-1.068,-1.0681,-1.0685,-1.0687,-1.069,-1.069,-1.0691,-1.0691,-1.0692,-1.0692,-1.0692,-1.0692,-1.0692,-1.0692,-1.0692,-1.0692,-1.0692,-1.0692,0,-1.0663,-1.0666,-1.0668,-1.0671,-1.0673,-1.0676,-1.0677,-1.0679,-1.068,-1.0681,-1.0683,-1.0686,-1.0688,-1.0689,-1.069,-1.0691,-1.0691,-1.0692,-1.0692,-1.0692,-1.0691,-1.0691,-1.0692,-1.0692,-1.0692,-1.0692,0,0,-1.0666,-1.067,-1.067,-1.0671,-1.0674,-1.0676,-1.0678,-1.0681,-1.0681,-1.0684,-1.0685,-1.0688,-1.0688,-1.0689,-1.069,-1.0691,-1.069,-1.0691,-1.0691,-1.069,-1.069,-1.069,-1.069,-1.0691,-1.0691,-1.0691,-1.069,0,-1.0668,-1.0672,-1.0674,-1.0677,-1.0679,-1.0679,-1.0681,-1.0683,-1.0684,-1.0685,-1.0686,-1.0688,-1.0688,-1.0689,-1.0689,-1.069,-1.069,-1.069,-1.0691,-1.0691,-1.069,-1.069,-1.0689,-1.0689,-1.069,-1.069,-1.069,0,-1.0672,-1.0674,-1.0677,-1.0678,-1.0679,-1.0681,-1.0682,-1.0684,-1.0685,-1.0686,-1.0687,-1.0687,-1.0689,-1.0689,-1.069,-1.069,-1.069,-1.069,-1.069,-1.069,-1.069,-1.0689,-1.0689,-1.0688,-1.069,-1.069,-1.069,0,-1.0673,-1.0676,-1.0678,-1.0679,-1.0681,-1.0682,-1.0683,-1.0684,-1.0685,-1.0686,-1.0686,-1.0688,-1.0688,-1.0689,-1.0689,-1.0689,-1.069,-1.069,-1.069,-1.069,-1.069,-1.069,-1.0689,-1.069,-1.069,-1.069,-1.0691,0,-1.0675,-1.0677,-1.0678,-1.0679,-1.0681,-1.0682,-1.0683,-1.0684,-1.0685,-1.0686,-1.0686,-1.0687,-1.0688,-1.0688,-1.0689,-1.0689,-1.0689,-1.0689,-1.0689,-1.0689,-1.0689,-1.0689,-1.0689,-1.069,-1.069,-1.069,-1.069,0,-1.0676,-1.0678,-1.068,-1.0681,-1.0681,-1.0682,-1.0683,-1.0684,-1.0685,-1.0686,-1.0686,-1.0687,-1.0687,-1.0688,-1.0688,-1.0689,-1.0688,-1.0689,-1.0688,-1.0688,-1.0687,-1.0687,-1.0686,-1.0686,-1.0688,-1.0688,-1.0688,0,-1.0678,-1.0679,-1.068,-1.0681,-1.0682,-1.0683,-1.0683,-1.0684,-1.0685,-1.0685,-1.0686,-1.0686,-1.0687,-1.0687,-1.0687,-1.0687,-1.0687,-1.0687,-1.0688,-1.0687,-1.0687,-1.0686,-1.0686,-1.0687,-1.0687,-1.0687,-1.0687,0,-1.068,-1.068,-1.0681,-1.0682,-1.0682,-1.0683,-1.0684,-1.0684,-1.0685,-1.0685,-1.0686,-1.0686,-1.0686,-1.0686,-1.0686,-1.0686,-1.0686,-1.0687,-1.0686,-1.0686,-1.0685,-1.0685,-1.0687,-1.0687,-1.0687,-1.0687,-1.0687,-1.0687,-1.0681,-1.0681,-1.0682,-1.0683,-1.0683,-1.0684,-1.0684,-1.0684,-1.0685,-1.0685,-1.0685,-1.0685,-1.0685,-1.0685,-1.0685,-1.0685,-1.0685,-1.0685,-1.0685,-1.0685,-1.0684,-1.0685,-1.0685,-1.0685,-1.0685,-1.0685,-1.0685,0,-1.0682,-1.0683,-1.0683,-1.0684,-1.0684,-1.0684,-1.0685,-1.0685,-1.0685,-1.0685,-1.0685,-1.0684,-1.0684,-1.0684,-1.0684,-1.0683,-1.0683,-1.0683,-1.0683,-1.0683,-1.0684,-1.0684,-1.0683,-1.0683,-1.0683,-1.0683,-1.0683,-1.0683,-1.0683,-1.0684,-1.0684,-1.0684,-1.0685,-1.0685,-1.0685,-1.0685,-1.0685,-1.0684,-1.0684,-1.0684,-1.0683,-1.0683,-1.0682,-1.0682,-1.0681,-1.0681,-1.0681,-1.0682,-1.0683,-1.0683,-1.0683,-1.0681,-1.0681,-1.0679,-1.0679,-1.0679]},{"header":{"parameterUnit":"m.s-1","parameterCategory":1,"la1":30.2991,"la2":30.254,"lo1":-89.0895,"lo2":-89.0444,"dy":0.0017,"dx":0.0017,"nx":28,"ny":28,"refTime":"2025-06-04T09:00:00:Z","depth":0,"parameterNumber":3,"parameterNumberName":"V-component_of_WINDS"},"data":[0,0,0,0,0,0,0,0,0,0,0,0,0,0,0,0,0,0,0,0,0,0,0,0,0,0,0,0,0,0,0,0,0,0,0,0,0,0,0,0,0,0,0,0,0,0,0,0,0,0,0,0,0,0,0,0,0,0,2.3974,2.3974,0,2.403,2.4031,2.4032,2.3995,2.3993,2.3992,2.399,2.4045,2.4048,2.4051,0,0,0,0,0,0,0,0,0,0,0,0,0,2.383,2.3833,2.3974,2.3974,2.3975,2.403,2.4031,2.4032,2.3995,2.3993,2.3991,2.3989,2.4044,2.4048,2.4051,0,0,0,0,0,0,0,0,0,0,0,0,0,2.389,2.3834,2.3974,2.3964,2.3963,2.403,2.4031,2.4032,2.3996,2.3993,2.3991,2.3988,2.4043,2.4047,2.4052,2.413,0,0,2.4066,2.4068,0,0,0,0,0,0,0,0,2.3887,2.3896,2.3964,2.3964,2.3964,2.4003,2.4001,2.4065,2.3997,2.3983,2.399,2.3987,2.4033,2.4038,2.4054,2.4133,2.4135,2.4066,2.4069,2.4071,2.4072,0,0,0,0,0,0,0,2.3883,2.3893,2.3996,2.3965,2.3965,2.3955,2.3961,2.4013,2.4022,2.3984,2.3982,2.3989,2.4032,2.405,2.4055,2.4136,2.4066,2.407,2.4073,2.4074,2.4282,2.4284,0,0,0,0,0,0,2.388,2.389,2.3994,2.3998,2.3919,2.396,2.3966,2.3993,2.4021,2.4023,2.3991,2.3987,2.4043,2.405,2.4057,2.415,2.4071,2.4075,2.4078,2.4279,2.4282,2.4285,0,0,0,0,0,0,2.3877,2.389,2.3992,2.3943,2.3955,2.3965,2.3996,2.3996,2.4013,2.4026,2.4027,2.4008,2.4042,2.4051,2.4113,2.4152,2.4077,2.4081,2.4276,2.428,2.4284,2.4338,0,0,0,0,0,0,2.3873,2.3889,2.392,2.3944,2.3958,2.4048,2.3998,2.3999,2.4022,2.4017,2.4042,2.4044,2.404,2.4106,2.4117,2.4157,2.4085,2.4272,2.4277,2.4282,2.4333,2.4344,2.4353,0,0,0,0,0,2.3868,2.3932,2.3921,2.3934,2.3997,2.405,2.4058,2.4054,2.4025,2.4055,2.4064,2.4043,2.4146,2.4113,2.4125,2.4166,2.427,2.4276,2.4282,2.4328,2.4341,2.4353,0,0,0,0,0,0,2.391,2.3935,2.3923,2.3997,2.4022,2.4044,2.4082,2.4068,2.41,2.4094,2.4086,2.4092,2.4157,2.4168,2.413,2.4244,2.4203,2.4212,2.4234,2.4247,2.4257,2.4252,2.4088,0,0,0,0,0,2.3929,2.3971,2.399,2.4053,2.4066,2.4072,2.4095,2.409,2.4114,2.4124,2.4137,2.4161,2.4198,2.4223,2.4259,2.4335,2.4339,2.4369,2.4379,2.4387,2.4395,2.4435,2.4448,2.4306,2.4306,2.4306,0,0,2.3966,2.3985,2.4012,2.4062,2.408,2.4123,2.4081,2.4128,2.4159,2.4131,2.419,2.4201,2.4227,2.4296,2.4327,2.4307,2.4435,2.4395,2.4402,2.4405,2.4443,2.4456,2.4468,2.431,2.4309,2.4308,0,0,2.4056,2.4075,2.413,2.4149,2.4178,2.4182,2.4195,2.4219,2.4225,2.4285,2.4265,2.4301,2.4367,2.4386,2.4404,2.4502,2.4484,2.4514,2.4566,2.4605,2.4616,2.4626,2.466,2.4672,2.4522,2.4522,2.4522,0,2.4098,2.4163,2.4159,2.4208,2.423,2.4208,2.4263,2.4282,2.432,2.4336,2.4313,2.4395,2.441,2.4483,2.4508,2.4523,2.4537,2.451,2.4615,2.4625,2.4634,2.4666,2.4679,2.4525,2.4525,2.4524,2.4524,0,2.4213,2.4258,2.4299,2.4338,2.4365,2.4416,2.4419,2.4447,2.4439,2.4445,2.4506,2.4525,2.4563,2.458,2.4573,2.4653,2.4639,2.4616,2.4575,2.4651,2.4681,2.4694,2.453,2.4529,2.4528,2.4527,0,0,2.433,2.4367,2.4382,2.4399,2.443,2.4464,2.4514,2.4553,2.4577,2.4604,2.4645,2.4701,2.4681,2.4701,2.4696,2.4731,2.4806,2.4704,2.4704,2.4721,2.4894,2.491,2.4924,2.4795,2.4797,2.4799,2.4891,0,2.4421,2.451,2.4508,2.459,2.4631,2.4611,2.4654,2.4677,2.4684,2.4719,2.4726,2.4766,2.4736,2.4748,2.4782,2.479,2.4841,2.4784,2.4832,2.4833,2.4825,2.494,2.4958,2.5043,2.4903,2.4905,2.4906,0,2.4538,2.4571,2.4658,2.4682,2.4699,2.4739,2.4774,2.4808,2.4834,2.4836,2.486,2.485,2.4899,2.4858,2.4926,2.4887,2.4907,2.4914,2.4917,2.492,2.4874,2.4945,2.5071,2.5083,2.4925,2.4924,2.4922,0,2.4614,2.4679,2.4739,2.4755,2.4786,2.4814,2.4827,2.485,2.4874,2.4905,2.492,2.4956,2.4975,2.5002,2.5002,2.4972,2.507,2.5029,2.5072,2.5072,2.5093,2.5091,2.5222,2.5108,2.5108,2.5107,2.5107,0,2.4715,2.4768,2.4774,2.481,2.4869,2.4867,2.4924,2.4935,2.4956,2.4994,2.4979,2.5014,2.5012,2.5047,2.5047,2.5103,2.5112,2.5114,2.5113,2.5115,2.5114,2.5127,2.512,2.5111,2.511,2.5109,2.5109,0,2.4808,2.4814,2.4878,2.4903,2.491,2.4952,2.4972,2.5006,2.5013,2.506,2.5071,2.5081,2.5122,2.5124,2.5171,2.5171,2.5238,2.5231,2.523,2.5228,2.5272,2.5267,2.5413,2.5432,2.5307,2.5308,2.5309,0,2.4871,2.4912,2.4941,2.4966,2.4982,2.5022,2.5046,2.5045,2.5071,2.5103,2.5133,2.5173,2.5205,2.5272,2.5282,2.5318,2.5311,2.5359,2.5316,2.5316,2.531,2.5307,2.5311,2.5367,2.5369,2.537,2.5371,0,2.4983,2.4984,2.502,2.5058,2.5088,2.5117,2.5144,2.5165,2.5167,2.5196,2.5239,2.5264,2.5313,2.5352,2.5387,2.54,2.5386,2.5385,2.5397,2.5398,2.5395,2.5396,2.5252,2.5381,2.538,2.5379,2.5379,2.5378,2.5062,2.5098,2.5124,2.5164,2.5185,2.5211,2.5244,2.5255,2.5291,2.5332,2.5329,2.5375,2.5399,2.5445,2.5461,2.5497,2.548,2.5498,2.5502,2.5506,2.551,2.5391,2.5504,2.5503,2.5503,2.5503,2.5503,0,2.5172,2.5188,2.5226,2.5265,2.5297,2.5282,2.5312,2.5339,2.5381,2.5405,2.5437,2.5486,2.5524,2.5538,2.5575,2.5601,2.5595,2.5611,2.5608,2.5611,2.5523,2.5509,2.5615,2.5615,2.5615,2.5615,2.5615,2.5615,2.5233,2.5291,2.5296,2.5364,2.5379,2.5426,2.5444,2.5468,2.5487,2.5543,2.5575,2.5584,2.5604,2.5642,2.5677,2.568,2.5693,2.5712,2.5712,2.5629,2.5618,2.5607,2.5593,2.5715,2.5715,2.5796,2.5797,2.5798]}]]